#timestamp,LO_Frequency,Hit,StdDev 
1553097615.8,286047002.9,N
1553097635.7,286047005.2,N
1553097655.5,286047007.6,N
1553097675.3,286047005.1,N
1553097695.2,286047003.7,N
1553097715.0,286047001.9,N
1553097715.9,286047001.9,N
1553097735.7,286047000.1,N
1553097755.6,286046999.0,N
1553097775.4,286046999.5,N
1553097795.3,286046995.5,N
1553097815.1,286046996.1,N
1553097816.0,286046996.1,N
1553097835.8,286046996.3,N
1553097855.7,286046995.8,N
1553097875.5,286046998.0,N
1553097895.3,286046995.5,N
1553097915.2,286046999.4,N
1553097935.0,286047002.4,N
1553097935.9,286047002.4,N
1553097955.8,286047000.1,N
1553097975.6,286047002.0,N
1553097995.4,286047003.7,N
1553098015.3,286047001.7,N
1553098035.1,286047002.4,N
1553098055.8,286047002.7,N
1553098075.7,286047001.5,N
1553098095.5,286047001.4,N
1553098115.4,286047003.8,N
1553098135.2,286047005.6,N
1553098155.0,286047006.0,N
1553098155.9,286047006.0,N
1553098175.8,286047004.9,N
1553098195.6,286047006.3,N
1553098215.4,286047003.4,N
1553098235.3,286047003.0,N
1553098255.1,286047001.5,N
1553098275.9,286046999.6,N
1553098295.7,286046997.3,N
1553098315.5,286046994.1,N
1553098335.4,286046992.3,N
1553098355.2,286046991.0,N
1553098375.0,286046989.4,N
1553098375.9,286046989.4,N
1553098395.8,286046986.9,N
1553098415.6,286046986.0,N
1553098435.5,286046985.7,N
1553098455.3,286046988.7,N
1553098475.1,286046988.7,N
1553098495.9,286046990.3,N
1553098515.7,286046990.1,N
1553098535.5,286046994.6,N
1553098555.4,286046992.1,N
1553098575.2,286046993.2,N
1553098595.1,286046992.9,N
1553098596.0,286046992.9,N
1553098615.8,286046992.2,N
1553098635.6,286046994.6,N
1553098655.5,286046991.7,N
1553098675.3,286046992.1,N
1553098695.1,286046993.6,N
1553098715.9,286046993.4,N
1553098735.7,286046996.0,N
1553098755.6,286046993.4,N
1553098775.4,286046995.7,N
1553098795.2,286046997.1,N
1553098815.1,286046998.6,N
1553098816.0,286046998.6,N
1553098835.8,286046998.4,N
1553098855.6,286047000.9,N
1553098875.5,286047002.7,N
1553098895.3,286046999.7,N
1553098915.2,286047000.3,N
1553098935.9,286047000.9,N
1553098955.7,286047000.4,N
1553098975.6,286046998.5,N
1553098995.4,286046999.8,N
1553099015.2,286046999.7,N
1553099035.1,286047002.4,N
1553099036.0,286047002.4,N
1553099055.8,286047001.1,N
1553099075.7,286047000.5,N
1553099095.5,286047000.2,N
1553099115.3,286047004.4,N
1553099135.2,286047002.6,N
1553099155.0,286047001.9,N
1553099155.9,286047001.9,N
1553099175.8,286047001.6,N
1553099195.6,286047002.2,N
1553099215.4,286047002.6,N
1553099235.3,286047001.3,N
1553099255.1,286047002.0,N
1553099275.8,286047002.3,N
1553099295.7,286046998.6,N
1553099315.5,286046999.6,N
1553099335.4,286046996.7,N
1553099355.2,286046999.4,N
1553099375.0,286046998.3,N
1553099375.9,286046998.3,N
1553099395.8,286046998.3,N
1553099415.6,286047002.3,N
1553099435.4,286047000.4,N
1553099455.3,286047002.2,N
1553099475.1,286047001.4,N
1553099495.9,286047001.6,N
1553099515.7,286047002.0,N
1553099535.5,286047002.6,N
1553099555.4,286047002.7,N
1553099575.2,286047002.2,N
1553099595.0,286047000.4,N
1553099595.9,286047000.4,N
1553099615.8,286047002.7,N
1553099635.6,286047002.4,N
1553099655.5,286047000.3,N
1553099675.3,286047000.0,N
1553099695.1,286047000.4,N
1553099715.9,286047001.0,N
1553099735.7,286047002.3,N
1553099755.5,286047001.5,N
1553099775.4,286047001.8,N
1553099795.2,286047002.5,N
1553099815.0,286047002.8,N
1553099816.0,286047002.8,N
1553099835.8,286047000.4,N
1553099855.6,286047001.9,N
1553099875.5,286047001.5,N
1553099895.3,286047004.1,Y
1553099915.1,286047001.8,P
1553099935.9,286047002.7,P
1553099955.7,286046998.3,N
1553099975.6,286046997.9,N
1553099995.4,286046994.3,N
1553100015.2,286046992.0,N
1553100035.1,286046991.6,N
1553100036.0,286046991.6,N
1553100055.8,286046988.4,N
1553100075.6,286046983.8,Y
1553100095.5,286046986.9,P
1553100115.3,286046985.6,P
1553100135.2,286046984.4,P
1553100155.9,286046984.3,Y
1553100175.7,286046995.0,P
1553100195.6,286046995.6,N
1553100215.4,286046993.3,N
1553100235.2,286046993.3,N
1553100255.1,286046995.4,N
1553100256.0,286046995.4,N
1553100275.8,286046997.2,N
1553100295.7,286046999.2,N
1553100315.5,286046999.7,N
1553100335.3,286047002.3,N
1553100355.2,286047004.2,N
1553100375.0,286047006.0,N
1553100375.9,286047006.0,N
1553100395.7,286047004.8,N
1553100415.6,286047003.1,N
1553100435.4,286047001.4,N
1553100455.3,286047002.8,N
1553100475.1,286047002.4,N
1553100476.0,286047002.4,N
1553100495.8,286047004.2,N
1553100515.7,286047003.3,N
1553100535.5,286047001.8,N
1553100555.3,286047001.3,N
1553100575.2,286047005.6,N
1553100595.0,286047004.9,N
1553100595.9,286047004.9,N
1553100615.8,286047007.3,N
1553100635.6,286047006.5,N
1553100655.4,286047008.7,N
1553100675.3,286047008.6,N
1553100695.1,286047010.3,N
1553100715.8,286047010.1,N
1553100735.7,286047010.0,N
1553100755.5,286047010.1,N
1553100775.4,286047013.4,Y
1553100795.2,286047009.9,P
1553100815.0,286047010.1,P
1553100815.9,286047010.1,P
1553100835.8,286047010.3,Y
1553100855.6,286046999.7,P
1553100875.4,286047000.2,N
1553100895.3,286046997.0,N
1553100915.1,286046995.2,N
1553100935.9,286046996.0,N
1553100955.7,286046994.8,N
1553100975.5,286046991.2,N
1553100995.4,286046990.7,N
1553101015.2,286046990.3,N
1553101035.0,286046990.6,N
1553101035.9,286046990.6,N
1553101055.8,286046993.8,N
1553101075.6,286046996.1,N
1553101095.5,286046997.2,N
1553101115.3,286046997.8,N
1553101135.1,286046995.2,N
1553101155.9,286046995.4,N
1553101175.7,286046997.2,N
1553101195.5,286046997.4,N
